TimeAKDT,TemperatureF,Dew PointF,Humidity,Sea Level PressureIn,VisibilityMPH,Wind Direction,Wind SpeedMPH,Gust SpeedMPH,PrecipitationIn,Events,Conditions,WindDirDegrees,DateUTC
12:01 AM,7.0,5.0,92,30.24,2.5,WNW,25.3,33.4,N/A,Snow,Light Snow,290,2013-04-25 08:01:00
12:20 AM,6.8,3.2,85,30.24,4.0,WNW,20.7,-,0.00,Snow,Light Snow,290,2013-04-25 08:20:00
12:28 AM,6.8,5.0,92,30.25,1.8,West,24.2,27.6,0.00,Snow,Light Snow,280,2013-04-25 08:28:00
12:36 AM,6.8,5.0,92,30.26,0.8,West,28.8,33.4,0.00,Snow,Light Snow,280,2013-04-25 08:36:00
12:52 AM,6.8,5.0,92,30.25,1.2,West,26.5,33.4,0.00,Snow,Light Snow,280,2013-04-25 08:52:00
1:01 AM,6.8,5.0,92,30.26,1.0,West,25.3,34.5,0.00,Snow,Light Snow,280,2013-04-25 09:01:00
1:14 AM,6.8,3.2,85,30.27,1.2,West,31.1,36.8,0.00,Snow,Light Snow,280,2013-04-25 09:14:00
1:41 AM,6.8,3.2,85,30.28,-9999.0,West,27.6,35.7,N/A,Snow,Light Snow,280,2013-04-25 09:41:00
1:51 AM,6.8,3.2,85,30.28,1.2,West,27.6,-,N/A,Snow,Light Snow,280,2013-04-25 09:51:00
2:01 AM,5.0,3.0,92,30.28,1.5,West,27.6,-,N/A,Snow,Light Snow,280,2013-04-25 10:01:00
2:44 AM,5.0,3.2,92,30.28,2.5,West,27.6,-,N/A,Snow,Light Snow,280,2013-04-25 10:44:00
3:01 AM,5.0,3.2,92,30.29,1.5,West,33.4,-,N/A,Snow,Light Snow,280,2013-04-25 11:01:00
3:43 AM,5.0,3.2,92,30.29,0.5,West,29.9,35.7,N/A,Fog-Snow,Light Snow,280,2013-04-25 11:43:00
4:01 AM,3.9,1.9,91,30.28,0.5,WNW,26.5,36.8,N/A,Fog-Snow,Light Snow,290,2013-04-25 12:01:00
4:12 AM,3.2,1.4,92,30.28,0.8,West,29.9,34.5,0.00,Snow,Light Snow,280,2013-04-25 12:12:00
4:33 AM,3.2,1.4,92,30.28,1.2,West,27.6,35.7,0.00,Snow,Light Snow,280,2013-04-25 12:33:00
4:51 AM,3.2,1.4,92,30.28,1.0,West,26.5,32.2,0.00,Snow,Light Snow,280,2013-04-25 12:51:00
5:01 AM,3.0,1.0,91,30.28,1.0,West,26.5,34.5,0.00,Snow,Light Snow,280,2013-04-25 13:01:00
5:27 AM,3.2,1.4,92,30.28,1.0,West,28.8,34.5,N/A,Snow,Light Snow,280,2013-04-25 13:27:00
5:35 AM,3.2,1.4,92,30.28,0.8,West,28.8,34.5,N/A,Snow,Light Snow,280,2013-04-25 13:35:00
6:01 AM,5.0,1.9,87,30.29,0.8,West,31.1,35.7,N/A,Snow,Light Snow,280,2013-04-25 14:01:00
6:36 AM,6.8,3.2,85,30.28,0.5,West,31.1,39.1,0.00,Fog-Snow,Light Snow,280,2013-04-25 14:36:00
6:46 AM,6.8,3.2,85,30.27,0.8,West,28.8,-,0.00,Snow,Light Snow,280,2013-04-25 14:46:00
7:15 AM,6.8,3.2,85,30.27,0.8,West,29.9,40.3,N/A,Snow,Light Snow,280,2013-04-25 15:15:00
7:23 AM,6.8,3.2,85,30.27,0.5,West,32.2,40.3,N/A,Fog-Snow,Light Snow,280,2013-04-25 15:23:00
8:01 AM,6.1,3.9,91,30.27,0.5,West,33.4,39.1,N/A,Fog-Snow,Light Snow,280,2013-04-25 16:01:00
8:46 AM,6.8,5.0,92,30.26,0.2,West,33.4,41.4,0.00,Fog-Snow,Light Snow,280,2013-04-25 16:46:00
9:01 AM,8.1,5.0,87,30.26,0.2,West,33.4,36.8,0.00,Fog-Snow,Light Snow,270,2013-04-25 17:01:00
10:01 AM,8.1,6.1,92,30.26,0.2,West,29.9,40.3,0.00,Fog-Snow,Light Snow,280,2013-04-25 18:01:00
11:01 AM,9.0,6.1,88,30.27,0.2,West,32.2,39.1,0.00,Fog-Snow,Light Snow,280,2013-04-25 19:01:00
12:01 PM,9.0,7.0,92,30.28,0.2,WNW,28.8,35.7,0.00,Fog-Snow,Light Snow,290,2013-04-25 20:01:00
1:01 PM,10.0,8.1,92,30.27,0.2,West,28.8,-,0.00,Fog-Snow,Light Snow,280,2013-04-25 21:01:00
1:47 PM,10.4,8.6,92,30.27,0.5,West,26.5,32.2,0.00,Fog-Snow,Light Snow,280,2013-04-25 21:47:00
1:59 PM,10.4,8.6,92,30.27,0.2,WNW,29.9,35.7,0.00,Fog-Snow,Light Snow,290,2013-04-25 21:59:00
2:01 PM,10.4,8.6,92,30.27,0.5,West,27.6,35.7,0.00,Fog-Snow,Light Snow,280,2013-04-25 22:01:00
3:01 PM,10.4,8.6,92,30.26,0.8,WNW,26.5,33.4,0.00,Snow,Light Snow,290,2013-04-25 23:01:00
3:25 PM,10.4,8.6,92,30.25,0.8,WNW,26.5,31.1,N/A,Snow,Light Snow,290,2013-04-25 23:25:00
3:54 PM,12.2,8.6,85,30.25,0.5,WNW,21.9,29.9,N/A,Fog-Snow,Light Snow,300,2013-04-25 23:54:00
4:01 PM,12.0,9.0,88,30.25,0.5,WNW,23.0,27.6,N/A,Fog-Snow,Light Snow,290,2013-04-26 00:01:00
4:15 PM,12.2,10.4,92,30.24,0.2,WNW,23.0,31.1,0.00,Fog-Snow,Light Snow,290,2013-04-26 00:15:00
4:25 PM,12.2,10.4,92,30.24,0.5,WNW,24.2,29.9,0.00,Fog-Snow,Light Snow,290,2013-04-26 00:25:00
4:39 PM,12.2,10.4,92,30.23,0.8,WNW,23.0,26.5,0.00,Snow,Light Snow,290,2013-04-26 00:39:00
5:01 PM,12.0,10.0,92,30.22,-9999.0,WNW,18.4,-,N/A,Snow,Light Snow,290,2013-04-26 01:01:00
5:10 PM,12.2,10.4,92,30.22,0.8,WNW,20.7,-,0.00,Snow,Light Snow,290,2013-04-26 01:10:00
5:28 PM,12.2,10.4,92,30.22,1.0,WNW,23.0,29.9,0.00,Snow,Light Snow,290,2013-04-26 01:28:00
5:35 PM,12.2,10.4,92,30.22,1.8,WNW,19.6,29.9,0.00,Snow,Light Snow,290,2013-04-26 01:35:00
5:52 PM,12.2,10.4,92,30.21,-9999.0,WNW,20.7,-,N/A,Snow,Light Snow,290,2013-04-26 01:52:00
6:01 PM,12.2,10.4,92,30.20,1.8,WNW,19.6,28.8,N/A,Snow,Light Snow,300,2013-04-26 02:01:00
6:28 PM,12.2,10.4,92,30.20,1.8,WNW,21.9,-,N/A,,Mist,290,2013-04-26 02:28:00
6:36 PM,12.2,10.4,92,30.20,2.5,WNW,21.9,-,N/A,Snow,Light Snow,290,2013-04-26 02:36:00
7:01 PM,12.0,9.0,88,30.18,4.0,WNW,19.6,24.2,N/A,Snow,Light Snow,300,2013-04-26 03:01:00
8:01 PM,10.9,8.1,88,30.16,5.0,WNW,18.4,-,N/A,,Mist,290,2013-04-26 04:01:00
9:01 PM,10.0,7.0,87,30.14,4.0,WNW,19.6,-,0.00,Snow,Light Snow,300,2013-04-26 05:01:00
9:14 PM,10.4,6.8,85,30.13,2.5,WNW,20.7,-,0.00,Snow,Light Snow,300,2013-04-26 05:14:00
9:25 PM,10.4,6.8,85,30.12,1.8,WNW,15.0,26.5,0.00,Snow,Light Snow,300,2013-04-26 05:25:00
9:32 PM,10.4,6.8,85,30.12,3.0,WNW,17.3,-,0.00,Snow,Light Snow,300,2013-04-26 05:32:00
9:44 PM,10.4,6.8,85,30.11,2.5,WNW,16.1,23.0,0.00,Snow,Light Snow,300,2013-04-26 05:44:00
10:01 PM,10.4,6.8,85,30.11,2.0,WNW,16.1,-,0.00,Snow,Light Snow,300,2013-04-26 06:01:00
10:07 PM,10.0,8.1,92,30.10,2.0,WNW,15.0,-,0.00,Snow,Light Snow,300,2013-04-26 06:07:00
10:21 PM,10.4,8.6,92,30.10,3.0,WNW,16.1,-,0.00,Snow,Light Snow,300,2013-04-26 06:21:00
10:42 PM,10.4,8.6,92,30.09,-9999.0,WNW,15.0,-,N/A,Snow,Light Snow,300,2013-04-26 06:42:00
11:01 PM,10.0,8.1,92,30.09,5.0,WNW,15.0,-,N/A,Snow,Light Snow,300,2013-04-26 07:01:00